Location: Arundel
(45.9679°N, 74.6164°W)
Time: 23:31:44
(UTC-05:00)

Amateur Radio Satellites - All Passes

Search period start: 20 November 2017 23:01
Search period end: 21 November 2017 23:01
Location: Arundel, 45.9679°N, 74.6164°W

Satellite Date Start Highest point End Downlink Frequencies (MHz)
Time Altitude Azimuth
RS-15 20 Nov 23:05:21 23:15:55 31° 354° (N) 23:26:09 29.354- 29.394
nSIGHT-1 20 Nov 23:06:13 23:09:12 34° 348° (NNW) 23:12:10 .
FO-29 20 Nov 23:06:36 23:11:17 17° 311° (NW) 23:15:56 435.910
VELOX 1 20 Nov 23:23:20 23:27:36 49° 71° (ENE) 23:31:55 145.980
PRISM 20 Nov 23:31:06 23:34:44 29° 293° (WNW) 23:38:18 437.425
LO-87 20 Nov 23:37:56 23:39:19 12° 270° (W) 23:40:41 145.935 - 145.965
DUCHIFAT 1 20 Nov 23:45:00 23:48:54 37° 98° (E) 23:52:46 145.980
ISS 20 Nov 23:48:59 23:51:56 30° 354° (N) 23:54:52 437.550
EO-79 20 Nov 23:51:37 23:55:46 58° 101° (E) 23:59:53 145.935-145.965
SO-50 20 Nov 23:52:57 23:56:11 19° 326° (NW) 23:59:27 436.795
NANOSAT C BR1 20 Nov 23:55:10 23:59:18 56° 101° (E) 00:03:23 145.865
50 SAT 20 Nov 23:58:24 00:01:03 23° 68° (ENE) 00:03:42 437.505
POLYITAN 1 21 Nov 00:06:46 00:11:00 84° 104° (ESE) 00:15:10 437.675
AIST 2D 21 Nov 00:07:08 00:10:04 25° 291° (WNW) 00:13:00 435.315
O/OREOS (USA 219) 21 Nov 00:07:36 00:11:08 23° 258° (WSW) 00:14:38 437.305
DX 1 21 Nov 00:10:28 00:14:29 37° 68° (ENE) 00:18:32 434.975-435.025
Oscar 19 21 Nov 00:11:47 00:13:55 12° 87° (E) 00:16:01 437.125/150
PCSat 21 Nov 00:15:08 00:20:27 61° 117° (ESE) 00:25:48 145.827
SPROUT 21 Nov 00:24:56 00:28:32 26° 265° (W) 00:32:09 437.525
QB50P2 21 Nov 00:30:12 00:34:16 49° 288° (WNW) 00:38:18 145.880/145.840
Gurwin Techsat 1B 21 Nov 00:33:02 00:35:57 15° 88° (E) 00:38:52 435.225
BUGSAT 1 21 Nov 00:39:20 00:43:04 35° 97° (E) 00:46:46 437.445
nSIGHT-1 21 Nov 00:43:03 00:45:58 30° 8° (N) 00:48:51 .
UKube-1 21 Nov 00:53:06 00:57:23 65° 72° (ENE) 01:01:42 .
VELOX 1 21 Nov 01:01:13 01:04:18 18° 268° (W) 01:07:26 145.980
DUCHIFAT 1 21 Nov 01:21:08 01:24:20 22° 295° (WNW) 01:27:33 145.980
RS-15 21 Nov 01:21:21 01:32:38 41° 28° (NNE) 01:43:20 29.354- 29.394
ISS 21 Nov 01:25:51 01:28:56 37° 14° (NNE) 01:32:01 437.550
EO-79 21 Nov 01:28:35 01:31:04 16° 298° (WNW) 01:33:34 145.935-145.965
50 SAT 21 Nov 01:30:38 01:33:06 20° 265° (W) 01:35:35 437.505
NANOSAT C BR1 21 Nov 01:32:01 01:34:34 16° 298° (WNW) 01:37:07 145.865
BEESAT 3 21 Nov 01:35:17 01:36:34 11° 109° (ESE) 01:37:53 437.485
BEESAT 21 Nov 01:39:37 01:43:49 32° 66° (ENE) 01:48:01 436.000
POLYITAN 1 21 Nov 01:44:48 01:46:07 11° 301° (WNW) 01:47:26 437.675
DX 1 21 Nov 01:47:14 01:50:45 23° 266° (W) 01:54:18 434.975-435.025
Oscar 19 21 Nov 01:48:44 01:53:56 89° 281° (W) 01:59:06 437.125/150
ITUPSAT 1 21 Nov 01:48:50 01:53:14 37° 67° (ENE) 01:57:38 437.325
M-CUBED/EXP-1 PRIME 21 Nov 01:55:24 01:58:34 18° 97° (E) 02:01:46 437.505
PCSat 21 Nov 01:59:38 02:04:14 27° 318° (NW) 02:08:52 145.827
MOZHAYETS 4 21 Nov 02:04:24 02:08:55 64° 73° (ENE) 02:13:27
Gurwin Techsat 1B 21 Nov 02:11:11 02:16:32 81° 287° (WNW) 02:21:51 435.225
AO-7 21 Nov 02:13:34 02:19:45 22° 91° (E) 02:25:53 .
BUGSAT 1 21 Nov 02:15:07 02:18:14 21° 295° (WNW) 02:21:18 437.445
CUBESAT XI-V 21 Nov 02:16:11 02:19:42 22° 64° (ENE) 02:23:16 437.345
nSIGHT-1 21 Nov 02:19:17 02:22:30 82° 27° (NNE) 02:25:42 .
UKube-1 21 Nov 02:31:42 02:33:50 13° 270° (W) 02:35:58 .
BEESAT 2 21 Nov 02:44:17 02:47:02 18° 112° (ESE) 02:49:49 435.950
ISS 21 Nov 03:02:20 03:05:32 55° 214° (SW) 03:08:44 437.550
BEESAT 3 21 Nov 03:09:30 03:13:31 80° 308° (NW) 03:17:32 437.485
BEESAT 21 Nov 03:17:16 03:21:32 32° 264° (W) 03:25:50 436.000
ITUPSAT 1 21 Nov 03:27:04 03:31:07 27° 265° (W) 03:35:12 437.325
M-CUBED/EXP-1 PRIME 21 Nov 03:28:45 03:33:11 57° 293° (WNW) 03:37:43 437.505
AO-85 21 Nov 03:29:06 03:31:54 19° 112° (ESE) 03:34:47 145.980
Oscar 19 21 Nov 03:29:47 03:32:31 15° 304° (WNW) 03:35:14 437.125/150
RS-15 21 Nov 03:34:37 03:46:36 86° 237° (WSW) 03:57:54 29.354- 29.394
ITAMSAT 1 21 Nov 03:40:31 03:45:42 62° 102° (ESE) 03:50:50 435.822/435.867
MOZHAYETS 4 21 Nov 03:43:57 03:46:31 15° 271° (W) 03:49:03
CUBESAT XI-V 21 Nov 03:52:24 03:56:47 45° 262° (W) 04:01:14 437.345
Gurwin Techsat 1B 21 Nov 03:53:05 03:55:38 14° 305° (NW) 03:58:12 435.225
nSIGHT-1 21 Nov 03:56:18 03:58:22 16° 225° (SW) 04:00:25 .
KKS-1 21 Nov 03:58:17 04:02:40 56° 72° (ENE) 04:07:05 437.445
AO-7 21 Nov 04:05:06 04:13:29 87° 292° (WNW) 04:21:52 .
BEESAT 2 21 Nov 04:20:27 04:24:23 52° 310° (NW) 04:28:23 435.950
STARS 21 Nov 04:23:24 04:27:34 42° 70° (ENE) 04:31:46 437.465
DOVE 4 21 Nov 04:24:52 04:29:36 34° 94° (E) 04:34:07 437.250
YUBILEINY 21 Nov 04:27:58 04:35:31 34° 83° (E) 04:43:08 435.215
STRAND 1 21 Nov 04:44:51 04:46:32 12° 54° (NE) 04:48:14 437.568
BEESAT 3 21 Nov 04:49:25 04:51:42 14° 327° (NNW) 04:53:58 437.485
SO-50 21 Nov 04:59:28 05:03:23 26° 40° (NE) 05:07:20 436.795
AO-85 21 Nov 05:08:09 05:11:56 45° 312° (NW) 05:15:55 145.980
CUTE-I 21 Nov 05:11:59 05:15:34 18° 90° (E) 05:19:07 437.470
XW-2C 21 Nov 05:13:57 05:16:36 18° 92° (E) 05:19:14 145.795 - 145.815
LilacSat-2 21 Nov 05:15:30 05:18:23 20° 93° (E) 05:21:16 437.200
ITAMSAT 1 21 Nov 05:20:54 05:24:43 21° 300° (WNW) 05:28:31 435.822/435.867
XW-2F 21 Nov 05:24:34 05:27:33 22° 94° (E) 05:30:31 145.980 - 146.000
KKS-1 21 Nov 05:36:44 05:39:34 16° 269° (W) 05:42:25 437.445
RS-15 21 Nov 05:48:38 05:57:13 25° 260° (W) 06:05:32 29.354- 29.394
FO-29 21 Nov 05:51:34 05:56:13 19° 51° (NE) 06:01:08 435.910
KAITUO 1B 21 Nov 05:52:24 05:55:52 34° 97° (E) 05:59:21 145.475/437.950
AO-7 21 Nov 05:58:56 06:05:12 25° 312° (NW) 06:11:29 .
STARS 21 Nov 06:00:41 06:04:04 21° 267° (W) 06:07:28 437.465
BEESAT 2 21 Nov 06:01:38 06:03:02 11° 331° (NNW) 06:04:27 435.950
DOVE 4 21 Nov 06:02:31 06:07:14 35° 293° (WNW) 06:11:44 437.250
XW-2D 21 Nov 06:06:42 06:10:32 75° 103° (ESE) 06:14:20 145.860 - 145.880
CUBEBUG 2 21 Nov 06:09:34 06:10:30 11° 87° (E) 06:11:25 437.445
HO-68 21 Nov 06:12:39 06:18:48 29° 94° (E) 06:24:53 435.675
STRAND 1 21 Nov 06:19:40 06:24:48 71° 73° (ENE) 06:29:56 437.568
XW-2B 21 Nov 06:21:33 06:25:22 76° 284° (WNW) 06:29:10 145.730 - 145.750
YUBILEINY 21 Nov 06:23:14 06:31:51 59° 285° (WNW) 06:40:34 435.215
NUDT-PHONESAT 21 Nov 06:37:09 06:40:50 70° 285° (WNW) 06:44:32 437.300
SO-50 21 Nov 06:39:36 06:44:08 55° 239° (WSW) 06:48:43 436.795
XW-2C 21 Nov 06:47:23 06:50:54 37° 289° (WNW) 06:54:25 145.795 - 145.815
CUTE 1.7 + AOD 2 21 Nov 06:48:14 06:52:24 49° 99° (E) 06:56:33 437.475
LilacSat-2 21 Nov 06:49:16 06:52:44 33° 290° (WNW) 06:56:13 437.200
CUTE-I 21 Nov 06:50:46 06:56:07 68° 288° (WNW) 07:01:25 437.470
AO-85 21 Nov 06:52:22 06:53:27 11° 335° (NNW) 06:54:33 145.980
ZACube-1 21 Nov 06:57:20 06:58:07 10° 88° (E) 06:58:54 437.345
XW-2F 21 Nov 06:58:20 07:01:41 30° 291° (WNW) 07:05:02 145.980 - 146.000
UWE-3 21 Nov 07:04:36 07:07:59 24° 94° (E) 07:11:22 435.000/436.395/437.385
PCSat 21 Nov 07:17:52 07:21:44 19° 36° (NE) 07:25:35 145.827
SEEDS 21 Nov 07:18:54 07:23:08 65° 101° (E) 07:27:21 437.485
AAUSAT CUBESAT 2 21 Nov 07:26:10 07:30:02 34° 97° (E) 07:33:50 437.432
KAITUO 1B 21 Nov 07:26:53 07:29:37 19° 294° (WNW) 07:32:22 145.475/437.950
FO-29 21 Nov 07:33:17 07:39:58 78° 73° (ENE) 07:47:31 435.910
XW-2D 21 Nov 07:43:19 07:44:07 11° 299° (WNW) 07:44:54 145.860 - 145.880
CUBEBUG 2 21 Nov 07:43:29 07:47:41 73° 284° (WNW) 07:51:47 437.445
AO-73 21 Nov 07:45:58 07:49:41 31° 96° (E) 07:53:23 145.935
UNISAT 6 21 Nov 07:47:37 07:50:59 21° 64° (ENE) 07:54:17 437.425
TIGRISAT 21 Nov 07:51:58 07:55:20 21° 64° (ENE) 07:58:40 435.000
HO-68 21 Nov 07:59:52 08:06:56 61° 293° (WNW) 08:13:57 435.675
XW-2A 21 Nov 08:00:32 08:03:54 77° 283° (WNW) 08:07:15 145.665 - 145.685
STRAND 1 21 Nov 08:01:20 08:04:30 16° 270° (W) 08:07:40 437.568
Oscar 11 21 Nov 08:02:24 08:06:19 33° 96° (E) 08:10:14 .
CUTE 1.7 + AOD 2 21 Nov 08:24:56 08:27:52 18° 297° (WNW) 08:30:48 437.475
YUBILEINY 21 Nov 08:26:45 08:30:57 14° 310° (NW) 08:35:12 435.215
ZACube-1 21 Nov 08:30:46 08:34:55 75° 285° (WNW) 08:39:04 437.345
CUTE-I 21 Nov 08:33:19 08:35:11 12° 307° (NW) 08:37:03 437.470
UWE-3 21 Nov 08:40:48 08:44:29 32° 292° (WNW) 08:48:11 435.000/436.395/437.385
PRISM 21 Nov 08:47:13 08:50:44 28° 67° (ENE) 08:54:18 437.425
SEEDS 21 Nov 08:56:00 08:58:18 14° 299° (WNW) 09:00:35 437.485
PCSat 21 Nov 09:00:31 09:05:59 82° 57° (ENE) 09:11:24 145.827
AAUSAT CUBESAT 2 21 Nov 09:01:56 09:05:18 24° 294° (WNW) 09:08:40 437.432
EO-88 21 Nov 09:03:04 09:05:07 14° 91° (E) 09:07:09 145.990 - 145.960
Max Valier Satellite 21 Nov 09:04:03 09:06:53 21° 94° (E) 09:09:42 145.860
AIST 2D 21 Nov 09:11:44 09:13:19 13° 63° (ENE) 09:14:55 435.315
FO-29 21 Nov 09:20:51 09:25:54 22° 274° (W) 09:31:23 435.910
AO-73 21 Nov 09:22:24 09:25:48 25° 293° (WNW) 09:29:13 145.935
UNISAT 6 21 Nov 09:22:59 09:27:23 47° 261° (W) 09:31:44 437.425
TIGRISAT 21 Nov 09:27:20 09:31:44 47° 261° (W) 09:36:04 435.000
POLYITAN 1 21 Nov 09:29:49 09:30:17 10° 58° (ENE) 09:30:45 437.675
DELFI C3 21 Nov 09:31:51 09:35:51 65° 101° (E) 09:39:48 145.870
Oscar 11 21 Nov 09:38:44 09:42:20 26° 294° (WNW) 09:45:57 .
BEESAT 3 21 Nov 09:47:01 09:49:57 19° 38° (NE) 09:52:52 437.485
HO-68 21 Nov 09:49:38 09:53:15 15° 314° (NW) 09:56:53 435.675
QB50P2 21 Nov 09:50:24 09:53:18 18° 63° (ENE) 09:56:13 145.880/145.840
AO-85 21 Nov 10:17:01 10:18:40 12° 26° (NNE) 10:20:20 145.980
PRISM 21 Nov 10:22:22 10:25:57 28° 264° (W) 10:29:34 437.425
EO-88 21 Nov 10:35:29 10:38:58 42° 288° (WNW) 10:42:26 145.990 - 145.960
Max Valier Satellite 21 Nov 10:37:31 10:40:44 29° 291° (WNW) 10:43:56 145.860
DUCHIFAT 1 21 Nov 10:38:42 10:42:36 38° 69° (ENE) 10:46:31 145.980
AIST 2D 21 Nov 10:42:44 10:46:05 47° 261° (W) 10:49:28 435.315
PCSat 21 Nov 10:45:26 10:48:40 16° 256° (WSW) 10:51:53 145.827
EO-79 21 Nov 10:45:50 10:49:59 58° 73° (ENE) 10:54:10 145.935-145.965
NANOSAT C BR1 21 Nov 10:49:03 10:53:11 56° 73° (ENE) 10:57:19 145.865
ESTCUBE 1 21 Nov 10:50:50 10:54:46 28° 95° (E) 10:58:39 437.505/2401.250
BEESAT 2 21 Nov 10:58:17 11:01:47 27° 43° (NE) 11:05:15 435.950
LO-87 21 Nov 10:59:34 11:02:59 44° 99° (E) 11:06:22 145.935 - 145.965
POLYITAN 1 21 Nov 11:01:06 11:05:21 85° 75° (ENE) 11:09:36 437.675
DELFI C3 21 Nov 11:08:12 11:10:04 13° 299° (WNW) 11:11:56 145.870
FALCONSAT 3 21 Nov 11:10:24 11:12:41 16° 175° (S) 11:14:58 435.103
BEESAT 3 21 Nov 11:23:56 11:27:51 61° 238° (WSW) 11:31:41 437.485
QB50P2 21 Nov 11:24:37 11:28:44 49° 260° (W) 11:32:52 145.880/145.840
AO-7 21 Nov 11:29:20 11:31:58 12° 34° (NE) 11:34:35 .
Oscar 19 21 Nov 11:30:07 11:34:13 25° 62° (ENE) 11:38:20 437.125/150
BUGSAT 1 21 Nov 11:30:54 11:34:43 35° 69° (ENE) 11:38:32 437.445
AO-85 21 Nov 11:55:47 12:00:11 43° 47° (NE) 12:04:54 145.980
Gurwin Techsat 1B 21 Nov 11:55:49 12:00:26 31° 64° (ENE) 12:05:03 435.225
SPROUT 21 Nov 12:07:06 12:11:09 42° 98° (E) 12:15:10 437.525
DUCHIFAT 1 21 Nov 12:15:08 12:18:23 21° 267° (W) 12:21:38 145.980
EO-79 21 Nov 12:23:48 12:26:07 14° 270° (W) 12:28:26 145.935-145.965
NANOSAT C BR1 21 Nov 12:26:49 12:29:14 15° 270° (W) 12:31:38 145.865
ESTCUBE 1 21 Nov 12:27:30 12:31:34 33° 292° (WNW) 12:35:38 437.505/2401.250
LO-87 21 Nov 12:34:06 12:36:02 14° 296° (WNW) 12:37:56 145.935 - 145.965
BEESAT 2 21 Nov 12:35:51 12:39:36 38° 242° (WSW) 12:43:18 435.950
O/OREOS (USA 219) 21 Nov 12:42:35 12:46:36 30° 105° (ESE) 12:50:37 437.305
M-CUBED/EXP-1 PRIME 21 Nov 12:43:11 12:46:15 26° 60° (ENE) 12:49:34 437.505
50 SAT 21 Nov 12:45:39 12:47:24 14° 92° (E) 12:49:08 437.505
VELOX 1 21 Nov 12:46:48 12:51:16 70° 103° (ESE) 12:55:41 145.980
FALCONSAT 3 21 Nov 12:49:05 12:51:00 14° 191° (S) 12:52:55 435.103
BUGSAT 1 21 Nov 13:06:50 13:10:09 22° 266° (W) 13:13:28 437.445
Oscar 19 21 Nov 13:08:20 13:13:15 48° 260° (W) 13:18:14 437.125/150
AO-7 21 Nov 13:14:57 13:22:29 41° 57° (ENE) 13:30:04 .
ITAMSAT 1 21 Nov 13:23:35 13:27:12 19° 59° (ENE) 13:30:49 435.822/435.867
DX 1 21 Nov 13:31:44 13:35:59 48° 100° (E) 13:40:13 434.975-435.025
Gurwin Techsat 1B 21 Nov 13:35:16 13:40:14 40° 262° (W) 13:45:15 435.225
AO-85 21 Nov 13:36:23 13:40:30 30° 244° (WSW) 13:44:51 145.980
SPROUT 21 Nov 13:43:37 13:46:46 21° 296° (WNW) 13:49:54 437.525
MOZHAYETS 4 21 Nov 13:58:41 14:00:35 12° 88° (E) 14:02:29
UKube-1 21 Nov 14:13:17 14:17:38 83° 102° (ESE) 14:21:58 .
50 SAT 21 Nov 14:16:41 14:19:38 33° 289° (WNW) 14:22:34 437.505
M-CUBED/EXP-1 PRIME 21 Nov 14:17:35 14:20:37 26° 260° (W) 14:23:53 437.505
O/OREOS (USA 219) 21 Nov 14:21:45 14:25:57 33° 304° (WNW) 14:30:08 437.305
VELOX 1 21 Nov 14:24:39 14:27:09 15° 300° (WNW) 14:29:38 145.980
YUBILEINY 21 Nov 14:34:27 14:40:36 20° 57° (ENE) 14:46:43 435.215
ITAMSAT 1 21 Nov 15:00:55 15:06:08 69° 258° (WSW) 15:11:22 435.822/435.867
AO-7 21 Nov 15:07:00 15:15:03 54° 258° (WSW) 15:23:10 .
DX 1 21 Nov 15:08:41 15:11:50 20° 298° (WNW) 15:14:59 434.975-435.025
BEESAT 21 Nov 15:14:04 15:18:43 51° 100° (E) 15:23:20 436.000
NO-84 21 Nov 15:14:10 15:17:50 60° 139° (SE) 15:21:48 435.350 FM
ITUPSAT 1 21 Nov 15:23:55 15:28:40 62° 102° (ESE) 15:33:22 437.325
DOVE 4 21 Nov 15:31:47 15:36:33 43° 69° (ENE) 15:41:32 437.250
MOZHAYETS 4 21 Nov 15:33:43 15:38:17 76° 284° (WNW) 15:42:50
CUBESAT XI-V 21 Nov 15:46:04 15:50:26 36° 97° (E) 15:54:46 437.345
UKube-1 21 Nov 15:51:16 15:53:01 12° 302° (WNW) 15:54:46 .
XW-2C 21 Nov 15:58:25 16:00:14 13° 62° (ENE) 16:02:03 145.795 - 145.815
LilacSat-2 21 Nov 16:00:25 16:02:35 15° 63° (ENE) 16:04:46 437.200
XW-2F 21 Nov 16:08:18 16:10:33 16° 64° (ENE) 16:12:49 145.980 - 146.000
YUBILEINY 21 Nov 16:30:05 16:39:00 81° 80° (E) 16:47:51 435.215
KAITUO 1B 21 Nov 16:34:45 16:37:42 23° 67° (ENE) 16:40:40 145.475/437.950
CUTE-I 21 Nov 16:35:39 16:40:32 37° 66° (ENE) 16:45:28 437.470
HO-68 21 Nov 16:44:15 16:50:17 30° 57° (ENE) 16:56:20 435.675
XW-2D 21 Nov 16:49:52 16:53:29 48° 72° (ENE) 16:57:06 145.860 - 145.880
NO-84 21 Nov 16:51:50 16:55:25 34° 340° (NNW) 16:59:12 435.350 FM
BEESAT 21 Nov 16:52:35 16:56:09 21° 298° (WNW) 16:59:42 436.000
ITUPSAT 1 21 Nov 17:02:49 17:06:01 18° 300° (WNW) 17:09:12 437.325
XW-2B 21 Nov 17:04:35 17:08:18 71° 75° (ENE) 17:12:03 145.730 - 145.750
CUBEBUG 2 21 Nov 17:09:02 17:11:35 15° 62° (ENE) 17:14:07 437.445
DOVE 4 21 Nov 17:10:05 17:14:22 27° 268° (W) 17:18:49 437.250
MOZHAYETS 4 21 Nov 17:13:58 17:14:38 10° 304° (WNW) 17:15:16
NUDT-PHONESAT 21 Nov 17:17:54 17:21:32 71° 74° (ENE) 17:25:11 437.300
KKS-1 21 Nov 17:22:56 17:27:26 80° 103° (ESE) 17:31:52 437.445
CUBESAT XI-V 21 Nov 17:23:43 17:27:39 28° 294° (WNW) 17:31:36 437.345
XW-2C 21 Nov 17:30:19 17:33:58 54° 260° (W) 17:37:40 145.795 - 145.815
LilacSat-2 21 Nov 17:32:52 17:36:29 47° 261° (W) 17:40:09 437.200
XW-2F 21 Nov 17:40:46 17:44:19 43° 261° (W) 17:47:54 145.980 - 146.000
CUTE 1.7 + AOD 2 21 Nov 17:42:54 17:46:55 46° 71° (ENE) 17:50:58 437.475
STARS 21 Nov 17:46:03 17:50:24 57° 101° (E) 17:54:42 437.465
ZACube-1 21 Nov 17:54:59 17:56:58 13° 61° (ENE) 17:58:54 437.345
RS-15 21 Nov 17:59:28 18:11:02 51° 111° (ESE) 18:22:33 29.354- 29.394
UWE-3 21 Nov 18:03:34 18:07:20 28° 68° (ENE) 18:11:02 435.000/436.395/437.385
KAITUO 1B 21 Nov 18:08:25 18:11:34 27° 265° (W) 18:14:45 145.475/437.950
SEEDS 21 Nov 18:12:26 18:16:31 59° 73° (ENE) 18:20:40 437.485
CUTE-I 21 Nov 18:15:48 18:20:36 33° 264° (W) 18:25:28 437.470
AAUSAT CUBESAT 2 21 Nov 18:18:23 18:22:01 31° 68° (ENE) 18:25:40 437.432
XW-2D 21 Nov 18:26:06 18:27:56 13° 270° (W) 18:29:46 145.860 - 145.880
YUBILEINY 21 Nov 18:28:12 18:34:46 24° 282° (WNW) 18:41:19 435.215
STRAND 1 21 Nov 18:28:32 18:32:14 20° 91° (E) 18:35:54 437.568
NO-84 21 Nov 18:30:22 18:33:40 23° 1° (N) 18:37:04 435.350 FM
HO-68 21 Nov 18:30:24 18:37:32 65° 257° (WSW) 18:44:43 435.675
XW-2A 21 Nov 18:33:30 18:36:41 46° 73° (ENE) 18:39:54 145.665 - 145.685
CUBEBUG 2 21 Nov 18:43:09 18:47:43 69° 258° (WSW) 18:52:10 437.445
FO-29 21 Nov 18:43:13 18:46:13 12° 80° (E) 18:49:09 435.910
AO-73 21 Nov 18:43:31 18:47:21 33° 69° (ENE) 18:51:09 145.935
Oscar 11 21 Nov 18:59:20 19:03:12 34° 69° (ENE) 19:07:06 .
KKS-1 21 Nov 19:01:12 19:03:21 13° 302° (WNW) 19:05:29 437.445
CUTE 1.7 + AOD 2 21 Nov 19:20:09 19:22:59 17° 269° (W) 19:25:51 437.475
STARS 21 Nov 19:23:26 19:26:18 17° 299° (WNW) 19:29:09 437.465
ZACube-1 21 Nov 19:28:23 19:32:42 73° 259° (W) 19:36:56 437.345
UWE-3 21 Nov 19:39:45 19:43:43 31° 264° (W) 19:47:36 435.000/436.395/437.385
ISS 21 Nov 19:45:41 19:46:51 11° 132° (SE) 19:48:01 437.550
Max Valier Satellite 21 Nov 19:45:53 19:47:56 14° 64° (ENE) 19:49:58 145.860
SEEDS 21 Nov 19:50:28 19:52:36 14° 271° (W) 19:54:45 437.485
AAUSAT CUBESAT 2 21 Nov 19:54:01 19:57:27 25° 266° (W) 20:00:56 437.432
STRAND 1 21 Nov 20:06:45 20:11:47 57° 289° (WNW) 20:16:47 437.568
NO-84 21 Nov 20:08:01 20:11:55 36° 22° (NNE) 20:15:53 435.350 FM
XW-2A 21 Nov 20:08:47 20:09:39 11° 270° (W) 20:10:32 145.665 - 145.685
RS-15 21 Nov 20:11:11 20:23:24 62° 316° (NW) 20:35:29 29.354- 29.394
DELFI C3 21 Nov 20:18:55 20:22:45 49° 72° (ENE) 20:26:37 145.870
AO-73 21 Nov 20:20:08 20:23:38 24° 266° (W) 20:27:06 145.935
HO-68 21 Nov 20:24:32 20:26:39 11° 277° (W) 20:28:47 435.675
FO-29 21 Nov 20:24:58 20:32:48 63° 100° (E) 20:40:10 435.910
nSIGHT-1 21 Nov 20:34:01 20:37:00 36° 143° (SE) 20:39:59 .
Oscar 11 21 Nov 20:35:52 20:39:23 25° 266° (W) 20:42:57 .
SO-50 21 Nov 20:56:33 21:00:14 26° 114° (ESE) 21:03:57 436.795
O/OREOS (USA 219) 21 Nov 21:11:39 21:14:00 14° 46° (NE) 21:16:21 437.305
UNISAT 6 21 Nov 21:12:14 21:15:57 28° 95° (E) 21:19:36 437.425
EO-88 21 Nov 21:14:40 21:18:16 73° 258° (WSW) 21:21:55 145.990 - 145.960
TIGRISAT 21 Nov 21:16:25 21:20:08 28° 95° (E) 21:23:48 435.000
Max Valier Satellite 21 Nov 21:17:52 21:21:23 46° 261° (W) 21:24:55 145.860
ISS 21 Nov 21:19:34 21:22:49 73° 150° (SSE) 21:26:05 437.550
LO-87 21 Nov 21:37:43 21:40:45 26° 69° (ENE) 21:43:49 145.935 - 145.965
NO-84 21 Nov 21:45:18 21:49:31 62° 221° (SW) 21:53:43 435.350 FM
ESTCUBE 1 21 Nov 21:52:30 21:56:31 34° 68° (ENE) 22:00:35 437.505/2401.250
DELFI C3 21 Nov 21:55:29 21:57:46 15° 270° (W) 22:00:05 145.870
PRISM 21 Nov 22:00:32 22:04:16 31° 97° (E) 22:07:58 437.425
AIST 2D 21 Nov 22:07:10 22:07:49 10° 89° (E) 22:08:28 435.315
nSIGHT-1 21 Nov 22:10:04 22:13:12 45° 341° (NNW) 22:16:18 .
FO-29 21 Nov 22:10:28 22:17:19 34° 300° (WNW) 22:23:56 435.910
VELOX 1 21 Nov 22:13:30 22:14:39 11° 57° (ENE) 22:15:47 145.980
RS-15 21 Nov 22:28:13 22:38:58 33° 347° (NNW) 22:49:26 29.354- 29.394
SO-50 21 Nov 22:36:10 22:40:28 44° 313° (NW) 22:44:50 436.795
POLYITAN 1 21 Nov 22:45:34 22:46:51 11° 88° (E) 22:48:08 437.675
UNISAT 6 21 Nov 22:48:55 22:52:38 29° 293° (WNW) 22:56:19 437.425
O/OREOS (USA 219) 21 Nov 22:49:33 22:54:09 88° 70° (ENE) 22:58:40 437.305
TIGRISAT 21 Nov 22:53:06 22:56:47 29° 293° (WNW) 23:00:27 435.000
